FDX110 KMEM-MPTO

Flight info

Callsign FDX110
Flight time N/A
Altitude 32000
Route PIEPE6 IBUFY DCT MCB/N0461F330 J35 LEV L214 IRDOV/N0397F170 L214 CUN/N0464F330 UM782 OMIRO UN420 MORLI OSUPA2C
Aircraft A306/H-SDE3FGHIRWY/LB1

Departure

Time 2026-05-01 14:07
Airport Memphis International Airport (KMEM)

Arrival

Time N/A
Airport Tocumen International Airport (MPTO)
Time Latitude Longitude Altitude Speed Heading
2026-05-01 13:33 35.06030 -89.97354 336 ft 0 kts
2026-05-01 13:43 35.06025 -89.97354 336 ft 4 kts
2026-05-01 13:43 35.05998 -89.97353 334 ft 4 kts 355°
2026-05-01 13:44 35.05971 -89.97349 333 ft 4 kts 345°
2026-05-01 13:44 35.05947 -89.97337 331 ft 4 kts 317°
2026-05-01 13:44 35.05937 -89.97319 334 ft 0 kts 272°
2026-05-01 13:53 35.05937 -89.97320 334 ft 0 kts 272°
2026-05-01 13:54 35.05938 -89.97323 336 ft 0 kts 272°
2026-05-01 13:54 35.05938 -89.97332 332 ft 6 kts 272°
2026-05-01 13:54 35.05940 -89.97409 334 ft 9 kts 271°
2026-05-01 13:55 35.05943 -89.97482 336 ft 8 kts 278°
2026-05-01 13:55 35.05944 -89.97492 335 ft 8 kts 280°
2026-05-01 13:55 35.05951 -89.97534 333 ft 8 kts 283°
2026-05-01 13:55 35.05965 -89.97593 334 ft 7 kts 286°
2026-05-01 13:56 35.05982 -89.97669 332 ft 15 kts 285°
2026-05-01 13:56 35.06005 -89.97812 337 ft 17 kts 276°
2026-05-01 13:56 35.06011 -89.97949 333 ft 16 kts 272°
2026-05-01 13:56 35.06014 -89.98077 334 ft 15 kts 271°
2026-05-01 13:57 35.06017 -89.98195 332 ft 13 kts 271°
2026-05-01 13:57 35.06020 -89.98305 333 ft 12 kts 271°
2026-05-01 13:57 35.06022 -89.98405 333 ft 11 kts 271°
2026-05-01 13:57 35.06009 -89.98491 333 ft 9 kts 229°
2026-05-01 13:58 35.05951 -89.98512 334 ft 10 kts 183°
2026-05-01 13:58 35.05832 -89.98506 332 ft 20 kts 178°
2026-05-01 13:58 35.05697 -89.98504 334 ft 18 kts 181°
2026-05-01 13:58 35.05574 -89.98506 333 ft 17 kts 180°
2026-05-01 13:59 35.05459 -89.98508 332 ft 16 kts 180°
2026-05-01 13:59 35.05316 -89.98510 334 ft 23 kts 179°
2026-05-01 13:59 35.05164 -89.98510 334 ft 21 kts 180°
2026-05-01 13:59 35.05021 -89.98510 334 ft 20 kts 179°
2026-05-01 14:00 35.04887 -89.98508 333 ft 19 kts 179°
2026-05-01 14:00 35.04763 -89.98508 334 ft 17 kts 180°
2026-05-01 14:00 35.04645 -89.98507 334 ft 16 kts 180°
2026-05-01 14:00 35.04535 -89.98507 333 ft 15 kts 180°
2026-05-01 14:01 35.04418 -89.98504 334 ft 22 kts 179°
2026-05-01 14:01 35.04269 -89.98501 334 ft 21 kts 179°
2026-05-01 14:01 35.04129 -89.98497 337 ft 20 kts 179°
2026-05-01 14:01 35.03998 -89.98494 334 ft 18 kts 179°
2026-05-01 14:02 35.03876 -89.98491 333 ft 17 kts 179°
2026-05-01 14:02 35.03749 -89.98487 332 ft 24 kts 178°
2026-05-01 14:02 35.03565 -89.98473 334 ft 29 kts 174°
2026-05-01 14:02 35.03347 -89.98465 332 ft 34 kts 180°
2026-05-01 14:03 35.03098 -89.98466 331 ft 38 kts 179°
2026-05-01 14:03 35.02871 -89.98462 332 ft 25 kts 180°
2026-05-01 14:03 35.02705 -89.98461 334 ft 23 kts 178°
2026-05-01 14:03 35.02562 -89.98456 333 ft 19 kts 178°
2026-05-01 14:04 35.02439 -89.98461 332 ft 15 kts 204°
2026-05-01 14:04 35.02405 -89.98550 336 ft 0 kts 270°
2026-05-01 14:05 35.02405 -89.98617 336 ft 15 kts 270°
2026-05-01 14:05 35.02438 -89.98686 334 ft 9 kts 336°
2026-05-01 14:05 35.02479 -89.98692 334 ft 0 kts
2026-05-01 14:06 35.02545 -89.98692 333 ft 37 kts 359°
2026-05-01 14:06 35.03047 -89.98705 331 ft 104 kts 359°
2026-05-01 14:06 35.03963 -89.98725 353 ft 157 kts 359°
2026-05-01 14:07 35.05097 -89.98733 904 ft 169 kts
2026-05-01 14:07 35.06232 -89.98744 1056 ft 155 kts 358°
2026-05-01 14:07 35.07276 -89.98910 1033 ft 149 kts 346°
2026-05-01 14:08 35.09348 -90.00201 1156 ft 195 kts 332°
2026-05-01 14:08 35.10598 -90.01108 1222 ft 226 kts 331°
2026-05-01 14:08 35.12032 -90.02111 1665 ft 245 kts 333°
2026-05-01 14:08 35.13421 -90.03373 2654 ft 253 kts 316°
2026-05-01 14:09 35.14309 -90.05228 3736 ft 258 kts 289°
2026-05-01 14:09 35.14540 -90.07425 4748 ft 263 kts 275°
2026-05-01 14:09 35.14585 -90.09673 5730 ft 267 kts 273°
2026-05-01 14:09 35.14603 -90.11938 6766 ft 267 kts 268°
2026-05-01 14:10 35.14176 -90.14122 7844 ft 267 kts 246°
2026-05-01 14:10 35.13029 -90.15930 8842 ft 274 kts 226°
2026-05-01 14:10 35.11587 -90.17473 9821 ft 277 kts 224°
2026-05-01 14:10 35.10099 -90.18969 10546 ft 288 kts 220°
2026-05-01 14:11 35.08228 -90.20094 10894 ft 317 kts 197°
2026-05-01 14:11 35.03498 -90.19841 11528 ft 361 kts 176°
2026-05-01 14:11 35.00946 -90.19435 11810 ft 378 kts 175°
2026-05-01 14:12 34.98304 -90.18928 12190 ft 390 kts 173°
2026-05-01 14:12 34.95600 -90.18399 12757 ft 396 kts 174°
2026-05-01 14:12 34.92862 -90.17872 13379 ft 400 kts 174°
2026-05-01 14:12 34.90097 -90.17350 13995 ft 404 kts 175°
2026-05-01 14:13 34.87304 -90.16829 14547 ft 408 kts 175°
2026-05-01 14:13 34.85443 -90.16482 14920 ft 410 kts 175°
2026-05-01 14:13 34.81650 -90.15778 15677 ft 415 kts 175°
2026-05-01 14:13 34.78780 -90.15246 16248 ft 418 kts 175°
2026-05-01 14:14 34.75893 -90.14711 16833 ft 421 kts 175°
2026-05-01 14:14 34.72983 -90.14172 17392 ft 424 kts 176°
2026-05-01 14:14 34.70066 -90.13633 18083 ft 424 kts 176°
2026-05-01 14:14 34.67143 -90.13093 18608 ft 427 kts 176°
2026-05-01 14:15 34.64193 -90.12549 19020 ft 431 kts 177°
2026-05-01 14:15 34.61221 -90.12001 19448 ft 434 kts 178°
2026-05-01 14:15 34.58228 -90.11449 19874 ft 437 kts 178°
2026-05-01 14:15 34.55254 -90.10900 20300 ft 439 kts 178°
2026-05-01 14:16 34.52219 -90.10339 20723 ft 442 kts 179°
2026-05-01 14:16 34.49173 -90.09782 21116 ft 444 kts 180°
2026-05-01 14:16 34.46110 -90.09504 21516 ft 436 kts 189°
2026-05-01 14:16 34.43110 -90.09764 21965 ft 431 kts 194°
2026-05-01 14:17 34.40124 -90.10177 22355 ft 433 kts 195°
2026-05-01 14:17 34.37125 -90.10603 22740 ft 435 kts 195°
2026-05-01 14:17 34.34683 -90.10945 23049 ft 437 kts 196°
2026-05-01 14:21 34.32431 -90.11258 23339 ft 439 kts 196°
2026-05-01 14:22 34.26331 -90.12097 24017 ft 442 kts 196°
2026-05-01 14:22 34.23277 -90.12514 24360 ft 443 kts 196°
2026-05-01 14:22 34.20208 -90.12933 24653 ft 444 kts 195°
2026-05-01 14:22 34.17130 -90.13354 24894 ft 447 kts 195°
2026-05-01 14:23 34.14039 -90.13774 25217 ft 447 kts 195°
2026-05-01 14:23 34.10950 -90.14193 25546 ft 447 kts 196°
2026-05-01 14:23 34.07847 -90.14561 25854 ft 450 kts 194°
2026-05-01 14:23 34.04708 -90.14775 26148 ft 453 kts 192°
2026-05-01 14:24 34.01545 -90.14901 26427 ft 455 kts 191°
2026-05-01 14:24 33.98386 -90.14993 26705 ft 455 kts 191°
2026-05-01 14:24 33.95214 -90.15084 26926 ft 456 kts 191°
2026-05-01 14:24 33.92025 -90.15188 27067 ft 459 kts 191°
2026-05-01 14:25 33.88826 -90.15306 27288 ft 460 kts 191°
2026-05-01 14:25 33.85629 -90.15431 27648 ft 458 kts 191°
2026-05-01 14:25 33.82453 -90.15556 28084 ft 454 kts 191°
2026-05-01 14:25 33.79311 -90.15682 28548 ft 450 kts 192°
2026-05-01 14:26 33.76203 -90.15809 28990 ft 446 kts 192°
2026-05-01 14:26 33.70042 -90.16067 29870 ft 439 kts 192°
2026-05-01 14:26 33.67036 -90.16195 30181 ft 438 kts 192°
2026-05-01 14:27 33.63989 -90.16327 30391 ft 438 kts 192°
2026-05-01 14:27 33.60938 -90.16458 30674 ft 438 kts 192°
2026-05-01 14:27 33.57901 -90.16587 30959 ft 437 kts 192°
2026-05-01 14:28 33.51841 -90.16839 31588 ft 434 kts 192°
2026-05-01 14:28 33.48824 -90.16964 31901 ft 433 kts 192°
2026-05-01 14:28 33.45804 -90.17090 32059 ft 433 kts 192°
2026-05-01 14:28 33.42808 -90.17212 32082 ft 428 kts 192°